User: anonymous   Login
Location: Unspecified
(0.0000°N, 0.0000°E)
Time: 10:27:10
(UTC+00:00)
Language:

Optus B1 - Orbit

View from above orbital plane
View from above orbital plane
View from above satellite
View from above satellite

Ground track
Ground track

The orbit data is extracted from the following two-line orbital elements,

1 22087U 92054A   15125.94007341 -.00000187  00000-0  00000+0 0  9997
2 22087 007.4752 052.5371 0010518 031.4468 228.9684 00.99204195 94427
Epoch (UTC): 05 May 2015 22:33:42
Eccentricity: 0.0010518
inclination: 7.4752°
perigee height: 36043 km
apogee height: 36133 km
right ascension of ascending node: 52.5371°
argument of perigee: 31.4468°
revolutions per day: 0.99204195
mean anomaly at epoch: 228.9684°
orbit number at epoch: 9442

The dashed part of the orbit path shows where the satellite is in the earth's shadow,  

DLR